Regional Weather Roundup
Issued by NWS

Home | Current Version | Previous Version | Text Only | Print | Product List | Glossary Off
Versions: 1 2 3 4 5 6 7 8 9 10 11 12 13 14 15 16 17 18 19 20 21 22 23 24 25 26 27 28 29 30 31 32 33 34 35 36 37 38 39 40 41 42 43 44 45 46 47 48 49 50

000
ASUS43 KLMK 281710
RWRKY
KENTUCKY REGIONAL WEATHER ROUNDUP
NATIONAL WEATHER SERVICE LOUISVILLE KY
100 PM EDT FRI APR 28 2017

NOTE "FAIR" INDICATES FEW OR NO CLOUDS BELOW 12,000 FEET
WITH NO SIGNIFICANT WEATHER AND/OR OBSTRUCTIONS TO VISIBILITY.

KYZ001>023-026-027-061>063-070>075-281800-
WESTERN AND SOUTH CENTRAL KENTUCKY

CITY           SKY/WX    TMP DP  RH WIND       PRES   REMARKS
PADUCAH        CLOUDY    72  59  63 NE7       29.84F
HENDERSON      CLOUDY    63  54  72 E9        29.90F
OWENSBORO      CLOUDY    67  56  67 E9        29.91F
HOPKINSVILLE   DRIZZLE   77  63  61 S12G17    29.88F
BOWLING GREEN  CLOUDY    77  65  66 S18G25    29.91F
GLASGOW        MOSUNNY   76  62  60 S9G18     29.93F
$$

KYZ024-025-028>034-038-045-046-053-281800-
NORTH CENTRAL KENTUCKY

CITY           SKY/WX    TMP DP  RH WIND       PRES   REMARKS
LOUISVILLE/SDF PTSUNNY   69  55  60 S6        29.96S
LOUISVILLE/LOU MOSUNNY   70  56  61 SE7       29.96S
FORT KNOX      MOSUNNY   70  56  61 CALM      29.93F
$$

KYZ035>037-039>044-047>052-055>060-089>105-281800-
NORTHEAST KENTUCKY

CITY           SKY/WX    TMP DP  RH WIND       PRES   REMARKS
LEXINGTON      CLOUDY    73  55  53 S12       29.98S
COVINGTON      CLOUDY    65  51  60 SE6       29.99F
FRANKFORT      CLOUDY    72  55  55 S7        29.96S
$$

KYZ054-064>069-076>088-106>120-281800-
SOUTHEAST KENTUCKY

CITY           SKY/WX    TMP DP  RH WIND       PRES   REMARKS
JACKSON        CLOUDY    75  56  51 VRB6      30.00F
LONDON         SUNNY     76  54  46 S10       29.99F
SOMERSET       CLOUDY    75  55  50 SW5       29.98F
MIDDLESBORO    MOSUNNY   77  60  55 S9        30.02S
MONTICELLO     MOSUNNY   79  62  56 SW16G24   29.98F
$$




USA.gov is the U.S. government's official web portal to all federal, state and local government web resources and services.